• In Italy
  • List of Countries
  • For 7 days
  • Water Temperature
  • Satellite Maps
  • Weather Map
  • Weather Widgets
  • user-avatar
    Login

    Hourly Weather Eisenstadt

    Today, 23 September, Saturday

    Time Temperature Precipitation Wind Pressure Humidity
    00:00 +9°C° 0 mm 2 mps 726 mmHg 80%
    01:00 +8°C° 0 mm 2 mps 726 mmHg 81%
    02:00 +8°C° 0 mm 2 mps 726 mmHg 82%
    03:00 +8°C° 0 mm 2 mps 726 mmHg 83%
    04:00 +8°C° 0 mm 2 mps 725 mmHg 84%
    05:00 +8°C° 0 mm 2 mps 725 mmHg 82%
    06:00 +9°C° 0 mm 2 mps 725 mmHg 81%
    07:00 +9°C° 0 mm 2 mps 725 mmHg 79%
    08:00 +12°C° 0 mm 2 mps 726 mmHg 72%
    09:00 +13°C° 0 mm 3 mps 726 mmHg 65%
    10:00 +16°C° 0 mm 3 mps 726 mmHg 57%
    11:00 +17°C° 0 mm 3 mps 725 mmHg 56%
    12:00 +18°C° 0 mm 3 mps 725 mmHg 54%
    13:00 +18°C° 0 mm 3 mps 725 mmHg 52%
    14:00 +17°C° 0.1 mm 3 mps 725 mmHg 57%
    15:00 +17°C° 0.1 mm 3 mps 724 mmHg 62%
    16:00 +16°C° 0.1 mm 3 mps 724 mmHg 67%
    17:00 +14°C° 0.1 mm 3 mps 724 mmHg 74%
    18:00 +13°C° 0.1 mm 2 mps 724 mmHg 81%
    19:00 +12°C° 0.1 mm 2 mps 724 mmHg 88%
    20:00 +10°C° 0.1 mm 2 mps 725 mmHg 88%
    21:00 +10°C° 0.1 mm 2 mps 725 mmHg 89%
    22:00 +10°C° 0.1 mm 2 mps 725 mmHg 90%
    23:00 +11°C° 0 mm 1 mps 725 mmHg 90%

    Tomorrow, 24 September, Sunday

    Time Temperature Precipitation Wind Pressure Humidity
    00:00 +11°C° 0 mm 1 mps 725 mmHg 90%
    01:00 +11°C° 0 mm 1 mps 725 mmHg 90%
    02:00 +11°C° 0.1 mm 1 mps 725 mmHg 91%
    03:00 +10°C° 0.1 mm 1 mps 725 mmHg 91%
    04:00 +10°C° 0.1 mm 1 mps 725 mmHg 92%
    05:00 +10°C° 0.1 mm 1 mps 725 mmHg 91%
    06:00 +11°C° 0.1 mm 1 mps 725 mmHg 90%
    07:00 +11°C° 0.1 mm 1 mps 725 mmHg 89%
    08:00 +12°C° 0.1 mm 1 mps 725 mmHg 83%
    09:00 +14°C° 0.1 mm 1 mps 726 mmHg 78%
    10:00 +15°C° 0.1 mm 1 mps 726 mmHg 72%
    11:00 +15°C° 0.1 mm 1 mps 726 mmHg 71%
    12:00 +16°C° 0.1 mm 2 mps 726 mmHg 70%
    13:00 +16°C° 0.1 mm 2 mps 725 mmHg 68%
    14:00 +16°C° 0.2 mm 2 mps 725 mmHg 70%
    15:00 +16°C° 0.2 mm 2 mps 725 mmHg 72%
    16:00 +15°C° 0.2 mm 2 mps 725 mmHg 74%
    17:00 +14°C° 0.1 mm 1 mps 725 mmHg 79%
    18:00 +13°C° 0.1 mm 1 mps 725 mmHg 84%
    19:00 +11°C° 0.1 mm 0 mps 725 mmHg 89%
    20:00 +10°C° 0 mm 0 mps 726 mmHg 90%
    21:00 +10°C° 0 mm 0 mps 726 mmHg 91%
    22:00 +10°C° 0 mm 0 mps 726 mmHg 92%
    23:00 +9°C° 0 mm 0 mps 726 mmHg 92%

    Day after tomorrow, 25 September, Monday

    Time Temperature Precipitation Wind Pressure Humidity
    00:00 +9°C° 0 mm 0 mps 726 mmHg 92%
    01:00 +9°C° 0 mm 0 mps 726 mmHg 92%
    02:00 +9°C° 0 mm 0 mps 726 mmHg 92%
    03:00 +9°C° 0 mm 0 mps 726 mmHg 93%
    04:00 +9°C° 0 mm 0 mps 725 mmHg 93%
    05:00 +9°C° 0 mm 0 mps 726 mmHg 92%
    06:00 +9°C° 0 mm 0 mps 726 mmHg 92%
    07:00 +10°C° 0 mm 0 mps 726 mmHg 91%
    08:00 +12°C° 0 mm 1 mps 726 mmHg 87%
    09:00 +13°C° 0 mm 1 mps 726 mmHg 83%
    10:00 +14°C° 0 mm 1 mps 726 mmHg 78%
    11:00 +15°C° 0.1 mm 1 mps 726 mmHg 76%
    12:00 +15°C° 0.1 mm 1 mps 726 mmHg 73%
    13:00 +16°C° 0.1 mm 2 mps 726 mmHg 71%
    14:00 +16°C° 0.1 mm 2 mps 726 mmHg 71%
    15:00 +16°C° 0.1 mm 2 mps 726 mmHg 72%
    16:00 +16°C° 0.1 mm 2 mps 726 mmHg 73%
    17:00 +15°C° 0 mm 1 mps 726 mmHg 77%
    18:00 +14°C° 0 mm 1 mps 726 mmHg 82%
    19:00 +13°C° 0 mm 1 mps 726 mmHg 86%
    20:00 +12°C° 0 mm 1 mps 726 mmHg 86%
    21:00 +12°C° 0 mm 1 mps 726 mmHg 87%
    22:00 +12°C° 0 mm 1 mps 726 mmHg 88%
    23:00 +11°C° 0 mm 1 mps 726 mmHg 88%

    26 September, Tuesday

    Time Temperature Precipitation Wind Pressure Humidity
    00:00 +11°C° 0 mm 1 mps 726 mmHg 89%
    01:00 +11°C° 0 mm 1 mps 726 mmHg 89%
    02:00 +11°C° 0.2 mm 1 mps 726 mmHg 90%
    03:00 +11°C° 0.2 mm 1 mps 726 mmHg 90%
    04:00 +11°C° 0.2 mm 1 mps 726 mmHg 90%
    05:00 +11°C° 1.3 mm 1 mps 726 mmHg 91%
    06:00 +11°C° 1.3 mm 1 mps 726 mmHg 93%
    07:00 +11°C° 1.3 mm 1 mps 726 mmHg 94%
    08:00 +12°C° 0.5 mm 1 mps 726 mmHg 91%
    09:00 +13°C° 0.5 mm 1 mps 726 mmHg 89%
    10:00 +14°C° 0.5 mm 1 mps 726 mmHg 87%
    11:00 +15°C° 0.1 mm 1 mps 726 mmHg 82%
    12:00 +16°C° 0.1 mm 1 mps 726 mmHg 77%
    13:00 +18°C° 0.1 mm 1 mps 726 mmHg 73%
    14:00 +19°C° 0 mm 1 mps 726 mmHg 72%
    15:00 +19°C° 0 mm 1 mps 726 mmHg 71%
    16:00 +19°C° 0 mm 1 mps 726 mmHg 70%
    17:00 +18°C° 0.4 mm 1 mps 726 mmHg 75%
    18:00 +15°C° 0.4 mm 1 mps 726 mmHg 81%
    19:00 +14°C° 0.4 mm 1 mps 726 mmHg 87%
    20:00 +13°C° 0.4 mm 1 mps 726 mmHg 88%
    21:00 +13°C° 0.4 mm 1 mps 726 mmHg 88%
    22:00 +13°C° 0.4 mm 1 mps 727 mmHg 89%
    23:00 +13°C° 0.3 mm 1 mps 727 mmHg 89%

    27 September, Wednesday

    Time Temperature Precipitation Wind Pressure Humidity
    00:00 +12°C° 0.3 mm 1 mps 727 mmHg 89%
    01:00 +12°C° 0.3 mm 1 mps 727 mmHg 89%
    02:00 +12°C° 0.1 mm 1 mps 727 mmHg 89%
    03:00 +12°C° 0.1 mm 1 mps 727 mmHg 89%
    04:00 +12°C° 0.1 mm 1 mps 727 mmHg 89%
    05:00 +12°C° 0 mm 1 mps 727 mmHg 89%
    06:00 +12°C° 0 mm 1 mps 727 mmHg 88%
    07:00 +13°C° 0 mm 1 mps 728 mmHg 87%
    08:00 +14°C° 0.1 mm 1 mps 728 mmHg 81%
    09:00 +16°C° 0.1 mm 1 mps 728 mmHg 75%
    10:00 +19°C° 0.1 mm 1 mps 728 mmHg 69%
    11:00 +19°C° 0.4 mm 2 mps 728 mmHg 66%
    12:00 +20°C° 0.4 mm 2 mps 728 mmHg 64%
    13:00 +20°C° 0.4 mm 2 mps 728 mmHg 62%
    14:00 +20°C° 0.5 mm 2 mps 728 mmHg 64%
    15:00 +20°C° 0.5 mm 2 mps 728 mmHg 66%
    16:00 +19°C° 0.5 mm 2 mps 728 mmHg 68%
    17:00 +18°C° 0.3 mm 2 mps 728 mmHg 72%
    18:00 +16°C° 0.3 mm 1 mps 728 mmHg 77%
    19:00 +15°C° 0.3 mm 1 mps 728 mmHg 81%
    20:00 +14°C° 0.1 mm 1 mps 728 mmHg 81%
    21:00 +14°C° 0.1 mm 1 mps 728 mmHg 82%
    22:00 +13°C° 0.1 mm 1 mps 728 mmHg 82%
    23:00 +13°C° 0 mm 1 mps 728 mmHg 82%

    28 September, Thursday

    Time Temperature Precipitation Wind Pressure Humidity
    00:00 +13°C° 0 mm 1 mps 728 mmHg 83%
    01:00 +13°C° 0 mm 1 mps 728 mmHg 83%
    02:00 +12°C° 0 mm 1 mps 728 mmHg 82%
    03:00 +12°C° 0 mm 1 mps 728 mmHg 82%
    04:00 +12°C° 0 mm 1 mps 728 mmHg 82%
    05:00 +12°C° 0 mm 1 mps 729 mmHg 81%
    06:00 +12°C° 0 mm 1 mps 729 mmHg 80%
    07:00 +12°C° 0 mm 1 mps 729 mmHg 80%
    08:00 +14°C° 0 mm 1 mps 729 mmHg 74%
    09:00 +16°C° 0 mm 1 mps 730 mmHg 67%
    10:00 +19°C° 0 mm 1 mps 730 mmHg 61%
    11:00 +18°C° 0 mm 2 mps 730 mmHg 58%
    12:00 +19°C° 0 mm 2 mps 730 mmHg 55%
    13:00 +20°C° 0 mm 3 mps 729 mmHg 52%
    14:00 +20°C° 0.1 mm 2 mps 729 mmHg 54%
    15:00 +19°C° 0.1 mm 2 mps 729 mmHg 57%
    16:00 +19°C° 0.1 mm 2 mps 729 mmHg 59%
    17:00 +17°C° 0 mm 2 mps 729 mmHg 64%
    18:00 +16°C° 0 mm 2 mps 729 mmHg 68%
    19:00 +14°C° 0 mm 1 mps 729 mmHg 73%
    20:00 +14°C° 0 mm 1 mps 729 mmHg 74%
    21:00 +13°C° 0 mm 1 mps 730 mmHg 75%
    22:00 +13°C° 0 mm 1 mps 730 mmHg 75%
    23:00 +12°C° 0 mm 1 mps 730 mmHg 76%
    Show more